FW3893 Weather Reports


time (UTC)temp
F
wind
direction
speed
knots
gust
knots
rain 1hr
in
rain 24hr
in
rain mn
in
humidity
%
barometer
mb
20260506113821 66 0.0 0.0 0.00 0.00 0.00 76 1003.7
20260506112824 66 0.0 0.0 0.00 0.00 0.00 73 1003.7
20260506111816 65 0.0 0.0 0.00 0.00 0.00 80 1003.7
20260506110818 65 0.0 0.0 0.00 0.00 0.00 81 1003.7
20260506105821 65 0.0 0.0 0.00 0.00 0.00 84 1004.1
20260506104823 65 0.0 0.0 0.00 0.00 0.00 85 1004.1
20260506103815 64 0.0 0.0 0.00 0.00 0.00 87 1004.3
20260506102817 63 0.0 0.0 0.00 0.00 0.00 89 1004.3
20260506101839 62 0.0 0.0 0.00 0.00 0.00 90 1004.3
20260506100821 61 0.0 0.0 0.00 0.00 0.00 91 1004.3
20260506095823 60 0.0 0.0 0.00 0.00 0.00 91 1004.5
20260506094825 61 0.0 0.0 0.00 0.00 0.00 91 1004.5
20260506093817 59 0.0 0.0 0.00 0.00 0.00 90 1004.5
20260506092820 59 0.0 0.0 0.00 0.00 0.00 90 1004.5
20260506091822 59 0.0 0.0 0.00 0.00 0.00 90 1004.3
20260506090824 59 0.0 0.0 0.00 0.00 0.00 90 1004.3
20260506085815 59 0.0 0.0 0.00 0.00 0.00 90 1004.5
20260506084817 59 0.0 0.0 0.00 0.00 0.00 91 1004.5
20260506083819 59 0.0 0.0 0.00 0.00 0.00 91 1004.5
20260506082844 58 0.0 0.0 0.00 0.00 0.00 92 1004.5
20260506081836 58 0.0 0.0 0.00 0.00 0.00 92 1003.9
20260506080819 58 0.0 0.0 0.00 0.00 0.00 92 1003.9
20260506072817 57 0.0 0.0 0.00 0.00 0.00 93 1004.2
20260506071819 57 0.0 0.0 0.00 0.00 0.00 93 1004.1
20260506070821 56 0.0 0.0 0.00 0.00 0.00 93 1004.1
20260506061820 56 0.0 0.0 0.00 0.00 0.00 92 1004.6
20260506060822 55 0.0 0.0 0.00 0.00 0.00 92 1004.6
20260506050824 54 0.0 0.0 0.00 0.00 0.00 91 1005.2
20260506044817 54 0.0 0.0 0.00 0.00 0.00 91 1004.9
20260506043819 54 0.0 0.0 0.00 0.00 0.00 91 1005.4
20260506042821 54 0.0 0.0 0.00 0.00 0.00 91 1005.4
20260506041823 54 0.0 0.0 0.00 0.00 0.00 91 1006.1
20260506040815 54 0.0 0.0 0.00 0.00 0.00 91 1006.1
20260506035836 54 0.0 0.0 0.00 0.00 0.00 91 1005.6
20260506034818 54 0.0 0.0 0.00 0.00 0.00 91 1005.6
20260506033841 54 0.0 0.0 0.00 0.00 0.00 91 1006.1
20260506032843 54 0.0 0.0 0.00 0.00 0.00 91 1006.1
20260506031825 54 0.0 0.0 0.00 0.00 0.00 90 1006.1
20260506030817 54 0.0 0.0 0.00 0.00 0.00 90 1006.1
20260506025820 54 0.0 0.0 0.00 0.00 0.00 90 1006.2
20260506024822 54 0.0 0.0 0.00 0.00 0.00 90 1006.2
20260506023815 54 0.0 0.0 0.00 0.00 0.00 90 1006.3
20260506022818 54 0.0 0.0 0.00 0.00 0.00 90 1006.3
20260506021821 54 0.0 0.0 0.00 0.00 0.00 90 1006.1
20260506020823 54 0.0 0.0 0.00 0.00 0.00 90 1006.1
20260506015825 54 0.0 0.0 0.00 0.00 0.00 90 1006.2
20260506014837 54 0.0 0.0 0.00 0.00 0.00 90 1006.2
20260506013820 54 0.0 0.0 0.00 0.00 0.00 90 1006.4
20260506012822 54 0.0 0.0 0.00 0.00 0.00 90 1006.4
20260506011845 54 0.0 0.0 0.00 0.00 0.00 90 1006.8
20260506010816 54 0.0 0.0 0.00 0.00 0.00 90 1006.8
20260506005818 53 0.0 0.0 0.00 0.00 0.00 90 1006.8
20260506004821 53 0.0 0.0 0.00 0.00 0.00 90 1006.8
20260506003843 53 0.0 0.0 0.00 0.00 0.00 90 1006.9
20260506002816 54 0.0 0.0 0.00 0.00 0.00 90 1007.0
20260506001818 53 0.0 0.0 0.00 0.00 0.00 90 1007.2
20260506000820 54 0.0 0.0 0.00 0.00 0.00 90 1007.2
20260505235822 54 0.0 0.0 0.00 0.00 0.00 90 1007.1
20260505234844 54 0.0 0.0 0.00 0.00 0.00 90 1007.1
20260505233816 54 0.0 0.0 0.00 0.00 0.00 90 1007.5
20260505232817 55 0.0 0.0 0.00 0.00 0.00 89 1007.5
20260505231819 55 0.0 0.0 0.00 0.00 0.00 90 1007.8
20260505230821 55 0.0 0.0 0.00 0.00 0.00 90 1007.8
20260505225823 55 0.0 0.0 0.00 0.00 0.00 90 1007.8
20260505224825 56 0.0 0.0 0.00 0.00 0.00 90 1007.8
20260505223817 56 0.0 0.0 0.00 0.00 0.00 90 1007.7
20260505222819 56 0.0 0.0 0.00 0.00 0.00 90 1007.7
20260505221821 56 0.0 0.0 0.00 0.00 0.00 90 1008.0
20260505220823 57 0.0 0.0 0.00 0.00 0.00 90 1008.0
20260505215845 57 0.0 0.0 0.00 0.00 0.00 90 1008.1
20260505214816 57 0.0 0.0 0.00 0.00 0.00 90 1008.1
20260505213820 57 0.0 0.0 0.00 0.00 0.00 89 1008.2
20260505212821 57 0.0 0.0 0.00 0.00 0.00 89 1008.2
20260505211823 57 0.0 0.0 0.00 0.00 0.00 89 1008.5
20260505210815 58 0.0 0.0 0.00 0.00 0.00 89 1008.6
20260505205817 58 0.0 0.0 0.00 0.00 0.00 89 1009.0
20260505204819 58 0.0 0.0 0.00 0.00 0.00 89 1009.0
20260505203821 58 0.0 0.0 0.00 0.00 0.00 89 1008.7
20260505202824 58 0.0 0.0 0.00 0.00 0.00 89 1008.7
20260505201816 57 0.0 0.0 0.00 0.00 0.00 89 1008.5
20260505200817 58 0.0 0.0 0.00 0.00 0.00 89 1008.5
20260505195820 58 0.0 0.0 0.00 0.00 0.00 89 1008.2
20260505194822 58 0.0 0.0 0.00 0.00 0.00 89 1008.2
20260505193844 58 0.0 0.0 0.00 0.00 0.00 89 1008.5
20260505192816 58 0.0 0.0 0.00 0.00 0.00 89 1008.5
20260505191819 58 0.0 0.0 0.00 0.00 0.00 89 1008.7
20260505190823 58 0.0 0.0 0.00 0.00 0.00 88 1008.7
20260505185815 58 0.0 0.0 0.00 0.00 0.00 88 1008.4
20260505184817 58 0.0 0.0 0.00 0.00 0.00 88 1008.5
20260505183819 58 0.0 0.0 0.00 0.00 0.00 88 1008.2
20260505182842 58 0.0 0.0 0.00 0.00 0.00 88 1008.2
20260505181815 58 0.0 0.0 0.00 0.00 0.00 88 1008.2
20260505180817 58 0.0 0.0 0.00 0.00 0.00 88 1008.2
20260505175819 58 0.0 0.0 0.00 0.00 0.00 88 1008.2
20260505174840 58 0.0 0.0 0.00 0.00 0.00 88 1008.2
20260505173823 58 0.0 0.0 0.00 0.00 0.00 88 1008.2
20260505172815 58 0.0 0.0 0.00 0.00 0.00 87 1008.2
20260505171817 58 0.0 0.0 0.00 0.00 0.00 87 1008.2
20260505170820 58 0.0 0.0 0.00 0.00 0.00 87 1008.2
20260505165844 58 0.0 0.0 0.00 0.00 0.00 87 1008.3
20260505164815 58 0.0 0.0 0.00 0.00 0.00 87 1008.3
20260505163817 58 0.0 0.0 0.00 0.00 0.00 87 1008.2
20260505162820 58 0.0 0.0 0.00 0.00 0.00 87 1008.2
20260505161822 59 0.0 0.0 0.00 0.00 0.00 87 1008.7
20260505160823 59 0.0 0.0 0.00 0.00 0.00 87 1008.7
20260505152843 59 0.0 0.0 0.00 0.00 0.00 88 1008.4
20260505151825 59 0.0 0.0 0.00 0.00 0.00 87 1008.5
20260505150816 59 0.0 0.0 0.00 0.00 0.00 87 1008.5
20260505124822 58 0.0 0.0 0.00 0.00 0.00 87 1009.0
20260505123824 58 0.0 0.0 0.00 0.00 0.00 87 1008.6
20260505122816 58 0.0 0.0 0.00 0.00 0.00 87 1008.6
20260505121818 58 0.0 0.0 0.00 0.00 0.00 86 1009.1
20260505120821 58 0.0 0.0 0.00 0.00 0.00 86 1009.1
20260505115824 58 0.0 0.0 0.00 0.00 0.00 85 1008.9
20260505114836 59 0.0 0.0 0.00 0.00 0.00 85 1008.9